Location: Nairn
(57.5833°N, 3.8667°W)
Time: 03:34:15
(UTC+00:00)

Cosmos 1809 Rocket - Pass Details

Date: 07 August 2020
Orbit: 942 x 962 km, 82.5° (Epoch: 27 September)

Event Time Altitude Azimuth Distance (km) Brightness Sun altitude
Rises 03:01:20 0° 346° (NNW) 3,623 8.1 -9.0°
Reaches altitude 10° 03:03:50 10° 347° (NNW) 2,676 7.4 -8.8°
Maximum altitude 03:09:58 89° 268° (W) 955 4.5 -8.3°
Drops below altitude 10° 03:16:05 10° 170° (S) 2,668 6.4 -7.8°
Sets 03:18:34 0° 170° (S) 3,612 7.1 -7.5°
